Kosmos-1620

operational
NORAD ID: 15472 Int'l Des: 1985-003 Owner: GUKOS Country: SU
LEOCIRCULARPOLAR

关于 Kosmos-1620

正在加载描述...

实时位置

正在加载3D地球...

即将过境

高度历史

Altitude vs Time

uPlot chart will show altitude changes over time

两行轨道根数

1 15472U 85003D 26062.64219328 .00000015 00000-0 24718-4 0 9998
2 15472 82.5998 120.5460 0015094 356.6881 171.9421 12.65065101899149
Epoch: Mar 3, 2026 • Age: 31 hours

当前状态

高度 1430.9 km
速度 7.14 km/s
星下点 -66.83°S, 50.41°E
发射日期 Jan 15, 1985
运行时间 41.1 years
类型 other

技术详情

分类 Payload
质量 225.00 kg
干质量 225.00 kg
总质量 225.00 kg
长度 1.60 m
直径 0.80 m
跨度 7.00 m
形状 Cyl + Ant
制造商 NPOPM
平台类型 Strela-3
阶段状态 In Orbit
所有者/国家 GUKOS/SU

大型星座

Loading constellations...